When you browse on this site, cookies collect data to enhance your experience and personalize the content and advertising you see.
Visit our Privacy Policy to learn more. By continuing to use the site, you agree to this use of cookies and data.
  • In Portugal
  • List of Countries
  • For 7 days
  • Water Temperature
  • Satellite Maps
  • Weather Map
  • Weather Widgets
  • user-avatar
    Login

    Hourly Weather Tibissa

    Today, 17 January, Thursday

    Time Temperature Precipitation Wind Pressure Humidity
    00:00 +4°C° 0 mm 3 mps 685 mmHg 76%
    01:00 +4°C° 0 mm 3 mps 685 mmHg 76%
    02:00 +3°C° 0 mm 3 mps 685 mmHg 78%
    03:00 +4°C° 0 mm 2 mps 685 mmHg 79%
    04:00 +4°C° 0 mm 2 mps 684 mmHg 81%
    05:00 +3°C° 0 mm 2 mps 684 mmHg 81%
    06:00 +3°C° 0 mm 2 mps 684 mmHg 81%
    07:00 +3°C° 0 mm 2 mps 684 mmHg 81%
    08:00 +4°C° 0 mm 2 mps 684 mmHg 73%
    09:00 +6°C° 0 mm 2 mps 684 mmHg 66%
    10:00 +7°C° 0 mm 2 mps 685 mmHg 58%
    11:00 +8°C° 0 mm 2 mps 684 mmHg 51%
    12:00 +9°C° 0 mm 3 mps 684 mmHg 44%
    13:00 +11°C° 0 mm 3 mps 684 mmHg 37%
    14:00 +11°C° 0 mm 3 mps 684 mmHg 35%
    15:00 +11°C° 0 mm 3 mps 684 mmHg 34%
    16:00 +11°C° 0 mm 3 mps 683 mmHg 33%
    17:00 +10°C° 0 mm 2 mps 683 mmHg 38%
    18:00 +8°C° 0 mm 2 mps 683 mmHg 44%
    19:00 +8°C° 0 mm 1 mps 683 mmHg 50%
    20:00 +7°C° 0 mm 1 mps 683 mmHg 51%
    21:00 +7°C° 0 mm 1 mps 683 mmHg 53%
    22:00 +6°C° 0 mm 1 mps 683 mmHg 55%
    23:00 +6°C° 0 mm 1 mps 683 mmHg 55%

    Tomorrow, 18 January, Friday

    Time Temperature Precipitation Wind Pressure Humidity
    00:00 +5°C° 0 mm 1 mps 683 mmHg 56%
    01:00 +5°C° 0 mm 1 mps 683 mmHg 57%
    02:00 +5°C° 0 mm 1 mps 682 mmHg 58%
    03:00 +4°C° 0 mm 1 mps 682 mmHg 59%
    04:00 +4°C° 0 mm 1 mps 682 mmHg 60%
    05:00 +4°C° 0 mm 1 mps 682 mmHg 62%
    06:00 +4°C° 0 mm 1 mps 682 mmHg 63%
    07:00 +3°C° 0 mm 1 mps 682 mmHg 65%
    08:00 +5°C° 0 mm 1 mps 683 mmHg 59%
    09:00 +7°C° 0 mm 1 mps 683 mmHg 54%
    10:00 +9°C° 0 mm 1 mps 684 mmHg 48%
    11:00 +9°C° 0 mm 2 mps 684 mmHg 47%
    12:00 +9°C° 0 mm 2 mps 684 mmHg 45%
    13:00 +10°C° 0 mm 2 mps 684 mmHg 43%
    14:00 +10°C° 0 mm 2 mps 683 mmHg 43%
    15:00 +10°C° 0 mm 2 mps 683 mmHg 42%
    16:00 +12°C° 0 mm 2 mps 683 mmHg 42%
    17:00 +10°C° 0 mm 2 mps 683 mmHg 46%
    18:00 +8°C° 0 mm 2 mps 683 mmHg 51%
    19:00 +7°C° 0 mm 2 mps 683 mmHg 56%
    20:00 +7°C° 0 mm 2 mps 683 mmHg 59%
    21:00 +7°C° 0 mm 1 mps 683 mmHg 62%
    22:00 +7°C° 0 mm 1 mps 684 mmHg 65%
    23:00 +6°C° 0 mm 1 mps 684 mmHg 68%

    Day after tomorrow, 19 January, Saturday

    Time Temperature Precipitation Wind Pressure Humidity
    00:00 +4°C° 0 mm 0 mps 683 mmHg 71%
    01:00 +4°C° 0 mm 0 mps 683 mmHg 73%
    02:00 +4°C° 0 mm 0 mps 683 mmHg 75%
    03:00 +3°C° 0 mm 0 mps 683 mmHg 77%
    04:00 +3°C° 0 mm 0 mps 683 mmHg 79%
    05:00 +3°C° 0 mm 0 mps 683 mmHg 80%
    06:00 +2°C° 0 mm 0 mps 683 mmHg 81%
    07:00 +2°C° 0 mm 0 mps 683 mmHg 82%
    08:00 +4°C° 0 mm 0 mps 683 mmHg 72%
    09:00 +6°C° 0 mm 0 mps 684 mmHg 63%
    10:00 +9°C° 0 mm 1 mps 684 mmHg 54%
    11:00 +10°C° 0 mm 1 mps 684 mmHg 49%
    12:00 +10°C° 0 mm 1 mps 684 mmHg 45%
    13:00 +10°C° 0 mm 2 mps 684 mmHg 41%
    14:00 +10°C° 0 mm 2 mps 684 mmHg 40%
    15:00 +12°C° 0 mm 2 mps 683 mmHg 39%
    16:00 +12°C° 0 mm 2 mps 683 mmHg 38%
    17:00 +10°C° 0 mm 2 mps 683 mmHg 43%
    18:00 +9°C° 0 mm 2 mps 683 mmHg 48%
    19:00 +8°C° 0 mm 2 mps 683 mmHg 53%
    20:00 +7°C° 0 mm 2 mps 683 mmHg 58%
    21:00 +7°C° 0 mm 1 mps 683 mmHg 62%
    22:00 +6°C° 0 mm 1 mps 684 mmHg 67%
    23:00 +6°C° 0 mm 1 mps 683 mmHg 68%

    20 January, Sunday

    Time Temperature Precipitation Wind Pressure Humidity
    00:00 +6°C° 0 mm 1 mps 683 mmHg 70%
    01:00 +5°C° 0 mm 1 mps 683 mmHg 72%
    02:00 +5°C° 0 mm 1 mps 683 mmHg 71%
    03:00 +4°C° 0 mm 2 mps 682 mmHg 71%
    04:00 +4°C° 0 mm 2 mps 682 mmHg 71%
    05:00 +4°C° 0 mm 2 mps 682 mmHg 71%
    06:00 +3°C° 0 mm 3 mps 682 mmHg 71%
    07:00 +3°C° 0 mm 3 mps 682 mmHg 71%
    08:00 +4°C° 0 mm 4 mps 682 mmHg 67%
    09:00 +5°C° 0 mm 6 mps 682 mmHg 64%
    10:00 +6°C° 0 mm 7 mps 683 mmHg 60%
    11:00 +7°C° 0 mm 8 mps 682 mmHg 57%
    12:00 +8°C° 0 mm 9 mps 682 mmHg 54%
    13:00 +9°C° 0 mm 10 mps 682 mmHg 52%
    14:00 +8°C° 0 mm 10 mps 681 mmHg 55%
    15:00 +8°C° 0 mm 10 mps 681 mmHg 58%
    16:00 +8°C° 0 mm 11 mps 681 mmHg 61%
    17:00 +7°C° 0 mm 9 mps 681 mmHg 66%
    18:00 +6°C° 0 mm 8 mps 680 mmHg 71%
    19:00 +5°C° 0 mm 6 mps 680 mmHg 76%
    20:00 +4°C° 0 mm 6 mps 681 mmHg 79%
    21:00 +5°C° 0 mm 5 mps 681 mmHg 83%
    22:00 +5°C° 0 mm 4 mps 681 mmHg 87%
    23:00 +4°C° 0 mm 4 mps 681 mmHg 87%

    21 January, Monday

    Time Temperature Precipitation Wind Pressure Humidity
    00:00 +4°C° 0 mm 3 mps 680 mmHg 87%
    01:00 +4°C° 0 mm 3 mps 680 mmHg 88%
    02:00 +4°C° 0 mm 3 mps 680 mmHg 87%
    03:00 +4°C° 0 mm 3 mps 680 mmHg 86%
    04:00 +4°C° 0 mm 3 mps 680 mmHg 85%
    05:00 +4°C° 0 mm 3 mps 680 mmHg 85%
    06:00 +4°C° 0 mm 4 mps 680 mmHg 85%
    07:00 +3°C° 0 mm 5 mps 681 mmHg 86%
    08:00 +4°C° 0 mm 6 mps 681 mmHg 83%
    09:00 +5°C° 0 mm 8 mps 682 mmHg 80%
    10:00 +5°C° 0 mm 10 mps 682 mmHg 77%
    11:00 +5°C° 0 mm 10 mps 682 mmHg 72%
    12:00 +6°C° 0 mm 10 mps 682 mmHg 68%
    13:00 +6°C° 0 mm 10 mps 682 mmHg 63%
    14:00 +6°C° 0 mm 9 mps 682 mmHg 62%
    15:00 +5°C° 0 mm 9 mps 682 mmHg 62%
    16:00 +5°C° 0 mm 8 mps 682 mmHg 61%
    17:00 +4°C° 0 mm 7 mps 682 mmHg 66%
    18:00 +4°C° 0 mm 6 mps 683 mmHg 71%
    19:00 +3°C° 0 mm 5 mps 683 mmHg 75%
    20:00 +2°C° 0 mm 5 mps 683 mmHg 80%
    21:00 +3°C° 0 mm 4 mps 683 mmHg 84%
    22:00 +2°C° 0 mm 3 mps 684 mmHg 88%
    23:00 +2°C° 0 mm 3 mps 683 mmHg 89%

    22 January, Tuesday

    Time Temperature Precipitation Wind Pressure Humidity
    00:00 +2°C° 0 mm 3 mps 683 mmHg 89%
    01:00 +1°C° 0 mm 3 mps 683 mmHg 90%
    02:00 +1°C° 0 mm 3 mps 683 mmHg 89%
    03:00 +2°C° 0 mm 2 mps 683 mmHg 89%
    04:00 +1°C° 0 mm 2 mps 682 mmHg 88%
    05:00 +1°C° 0 mm 2 mps 682 mmHg 85%
    06:00 +1°C° 0 mm 2 mps 682 mmHg 83%
    07:00 +1°C° 0 mm 2 mps 682 mmHg 80%
    08:00 +2°C° 0 mm 3 mps 683 mmHg 73%
    09:00 +4°C° 0 mm 4 mps 683 mmHg 65%
    10:00 +5°C° 0 mm 5 mps 684 mmHg 57%
    11:00 +5°C° 0 mm 6 mps 683 mmHg 53%
    12:00 +7°C° 0 mm 6 mps 683 mmHg 49%
    13:00 +8°C° 0 mm 7 mps 683 mmHg 45%
    14:00 +8°C° 0.1 mm 7 mps 683 mmHg 44%
    15:00 +8°C° 0.1 mm 6 mps 682 mmHg 44%
    16:00 +8°C° 0.1 mm 6 mps 682 mmHg 44%
    17:00 +6°C° 0.1 mm 4 mps 681 mmHg 52%
    18:00 +5°C° 0.1 mm 3 mps 681 mmHg 61%
    19:00 +6°C° 0.1 mm 1 mps 680 mmHg 70%
    20:00 +4°C° 0 mm 2 mps 680 mmHg 71%
    21:00 +4°C° 0 mm 2 mps 680 mmHg 72%
    22:00 +3°C° 0 mm 3 mps 680 mmHg 73%
    23:00 +3°C° 0 mm 4 mps 679 mmHg 71%
    Show more